Regional Weather Roundup
Issued by NWS

Home | Current Version | Previous Version | Text Only | Print | Product List | Glossary Off
Versions: 1 2 3 4 5 6 7 8 9 10 11 12 13 14 15 16 17 18 19 20 21 22 23 24 25 26 27 28 29 30 31 32 33 34 35 36 37 38 39 40 41 42 43 44 45 46 47 48 49 50

000
ASUS45 KBOU 232310
RWRCO

WEATHER ROUNDUP FOR COLORADO
NATIONAL WEATHER SERVICE DENVER/BOULDER CO
500 PM MDT MON APR 23 2018

NOTE: "FAIR" INDICATES FEW OR NO CLOUDS BELOW 12000 FEET WITH NO
SIGNIFICANT WEATHER AND/OR OBSTRUCTIONS TO VISIBILITY.

COZ001>005-013-030-031-240000-
...NORTHWEST COLORADO...

CITY           SKY/WX    TMP DP  RH WIND       PRES   REMARKS
CRAIG          FAIR      61  37  41 N17G29    30.04R
HAYDEN         FAIR      63  32  31 NW18G25   30.05F
MEEKER         PTSUNNY   68  28  22 W10G17    30.04S
RANGELY        FAIR      73  27  17 W15G23    29.99F
RABBIT EARS PA MOCLDY    43  28  56 W5        30.24S
STEAMBOAT SPGS FAIR      65  27  24 W18G28    30.05S
WALDEN         FAIR      61  21  21 SW21G30   30.13R
$$

COZ006>008-011-240000-
...WEST CENTRAL VALLEYS...

CITY           SKY/WX    TMP DP  RH WIND       PRES   REMARKS
GRAND JUNCTION FAIR      79  21  11 W17G28    29.96F
MONTROSE       FAIR      74  15  10 N5        30.01F
EAGLE          FAIR      67  23  19 NW16G22   30.07R
RIFLE          FAIR      74  20  13 W15G29    29.99S
DELTA          FAIR      81  15   8 NW12G20   29.97F
NUCLA          FAIR      77  12   8 W17G26    30.06F
$$

COZ017>023-064>068-240000-
...SOUTHWEST COLORADO...

CITY           SKY/WX    TMP DP  RH WIND       PRES   REMARKS
DURANGO        FAIR      73  16  11 SW17G26   30.09S
CORTEZ         FAIR      76   5   6 W7        30.07F
PAGOSA SPRINGS FAIR      67   8  10 W9G18     30.14F
TELLURIDE      PTSUNNY   59  13  16 W5        30.24S
WOLF CREEK PAS FAIR      41  19  42 SW5       30.43S
$$

COZ009-010-012-014-032>034-037-058>063-240000-
...CENTRAL COLORADO...

CITY           SKY/WX    TMP DP  RH WIND       PRES   REMARKS
ASPEN          FAIR      63  22  20 SW15G22   30.11F
BUENA VISTA    FAIR      67  13  12 W10G23    30.11F
COPPER MTN     NOT AVBL
BERTHOUD PASS  FAIR      36  28  75 W16       30.34R
COTTONWOOD PAS FAIR      63  18  17 W8        30.23S
GUNNISON       FAIR      64  19  17 W9        30.12F
GRANBY         FAIR      61  26  25 W13G18    30.14R
KREMMLING      FAIR      70  21  16 W16G23    30.11R
LEADVILLE      CLOUDY    50  22  33 N10G22    30.23F
MONARCH PASS   PTSUNNY   43  14  31 W30G44    30.44F
SALIDA         FAIR      69  13  11 W9G20     30.15F
SUNLIGHT       CLOUDY    43  19  39 SW12G28   30.30R
WILKERSON PASS FAIR      50  18  27 SW12G21   30.32S
$$

COZ069>075-240000-
...SAN LUIS VALLEY/SANGRE DE CRISTO MOUNTAINS...

CITY           SKY/WX    TMP DP  RH WIND       PRES   REMARKS
ALAMOSA        FAIR      66  20  17 SW12      30.11F
DEL NORTE      FAIR      68  21  16 W20G26    30.13F
LA VETA PASS   PTSUNNY   54  21  28 SW15G23   30.38S
SAGUACHE       NOT AVBL
$$

COZ035-036-038>040-240000-
...NORTHERN COLORADO FRONT RANGE...

CITY           SKY/WX    TMP DP  RH WIND       PRES   REMARKS
DENVER INTL AP PTSUNNY   71  32  23 VRB3      29.98F
AURORA         PTSUNNY   72  31  22 NE9       30.00F
FRONT RANGE AP PTSUNNY   73  30  20 N3G21     30.00F
ERIE MUNI ARPT FAIR      71  33  24 E6        30.01S
BOULDER MUN AP FAIR      72  36  26 SE8       29.96S
CENTENNIAL     PTSUNNY   70  36  28 NE12G21   30.00S
BROOMFIELD     PTSUNNY   70  34  26 SE7       29.99F
FORT COLLINS   FAIR      69  41  36 E8        29.97F
LONGMONT       FAIR      73  33  23 NE5       29.96F
$$

COZ041-046-047-076>085-087-088-240000-
...PIKES PEAK/PALMER DIVIDE AND SOUTHERN FOOTHILLS...

CITY           SKY/WX    TMP DP  RH WIND       PRES   REMARKS
COLO. SPRINGS  PTSUNNY   66  36  32 SE15      30.06F
A. F. ACADEMY  NOT AVBL
SCHRIEVER AFB  NOT AVBL
CHEYENNE MTN   PTSUNNY   58  34  39 S8        30.04F
ELLICOTT         N/A    N/A N/A N/A S10       30.05S
FALCON         FAIR      65  32  28 S6        30.11F
FORT CARSON    FAIR      64  40  42 SW6       30.02F
LIMON          FAIR      67  37  33 SE18G28   30.03S
MONUMENT HILL  LGT RAIN  52  41  66 E7G22     30.10S
CANON CITY     FAIR      73  34  23 E12G22    29.99R
WALSENBURG     NOT AVBL
TRINIDAD       FAIR      72  29  20 E8        30.03S
$$

COZ042>045-048>051-090-091-240000-
...NORTHEAST COLORADO...

CITY           SKY/WX    TMP DP  RH WIND       PRES   REMARKS
GREELEY ARPT   FAIR      73  40  30 N14       29.96F
AKRON          FAIR      67  43  41 S20G30    30.00F
BURLINGTON     FAIR      66  41  40 S20G29    30.03F
WRAY           FAIR      70  37  30 S10G18    30.01F
YUMA           FAIR      64  27  24 SE16G24   30.00F
STERLING       NOT AVBL
HOLYOKE        FAIR      72  39  30 SE18G26   30.01F
FORT MORGAN    FAIR      73  35  24 SE13G23   29.96S
$$

COZ086-089-092>099-240000-
...SOUTHEAST COLORADO...

CITY           SKY/WX    TMP DP  RH WIND       PRES   REMARKS
PUEBLO         FAIR      75  36  24 E13G24    29.96F
LA JUNTA       FAIR      76  35  22 SE5       29.96F
LAMAR          FAIR      73  41  31 SE14G23   29.96F
SPRINGFIELD      N/A     68  41  37 S18G25    30.02S
$$



USA.gov is the U.S. government's official web portal to all federal, state and local government web resources and services.